Location: Erba
(45.8000°N, 9.2500°E)
Time: 12:01:27
(UTC+02:00)

ISS - Pass Details

Date: 10 July 2020
Orbit: 417 x 420 km, 51.6° (Epoch: 02 July)

Event Time Altitude Azimuth Distance (km) Brightness Sun altitude
Exits shadow 01:50:00 61° 9° (N) 479 -3.3 -21.8°
Drops below altitude 10° 01:53:04 10° 59° (ENE) 1,497 -0.5 -21.8°
Sets 01:55:10 0° 62° (ENE) 2,363 0.5 -21.7°
